Location: ?????????
(41.1143°N, 22.7905°E)
Time: 08:15:19
(UTC+00:00)

COSMO-SKYMED 1 - Pass Details

Date: 16 March 2026
Orbit: 576 x 578 km, 97.9° (Epoch: 18 April)

Event Time Altitude Azimuth Distance (km) Brightness Sun altitude
Rises 03:42:48 0° 153° (SSE) 2,779 6.2 -11.4°
Reaches altitude 10° 03:44:59 10° 147° (SSE) 1,885 5.4 -11.0°
Maximum altitude 03:48:56 49° 73° (ENE) 754 3.5 -10.3°
Drops below altitude 10° 03:52:54 10° 359° (N) 1,899 5.1 -9.6°
Sets 03:55:06 0° 354° (N) 2,802 5.9 -9.1°
